This is the latest recevied weather packets stored in our database for station/object W4MSI. If no packets are shown the sender has not sent any weather packets the latest 10 day(s).
| Time | Temp. | Humidity | Pressure | Rain* | Wind** | Luminosity | Snow |
|---|---|---|---|---|---|---|---|
| 1777124440 | 16.67° C | 98% | 1010.6 hPa | 0 mm | - | 245 W/m² | - |
| 1777124137 | 16.67° C | 98% | 1010.7 hPa | 0 mm | - | 192 W/m² | - |
| 1777123834 | 16.11° C | 99% | 1010.7 hPa | 0 mm | - | 164 W/m² | - |
| 1777123530 | 16.11° C | 99% | 1010.9 hPa | 0 mm | - | 173 W/m² | - |
| 1777123226 | 16.11° C | 99% | 1010.8 hPa | 0 mm | - | 136 W/m² | - |
| 1777122922 | 16.11° C | 99% | 1010.7 hPa | 0 mm | - | 122 W/m² | - |
| 1777122619 | 15.56° C | 99% | 1011 hPa | 0 mm | - | 90 W/m² | - |
| 1777122314 | 15.56° C | 99% | 1010.6 hPa | 0 mm | - | 76 W/m² | - |
| 1777122011 | 15.56° C | 99% | 1010.9 hPa | 0 mm | - | 73 W/m² | - |
| 1777121707 | 15.56° C | 99% | 1010.7 hPa | 0 mm | - | 63 W/m² | - |
| 1777121405 | 15.56° C | 99% | 1010.9 hPa | 0 mm | - | 61 W/m² | - |
| 1777121099 | 15.56° C | 99% | 1010.7 hPa | 0 mm | - | 69 W/m² | - |
| 1777120796 | 15.56° C | 99% | 1010.5 hPa | 0 mm | - | 70 W/m² | - |
| 1777120492 | 15.56° C | 99% | 1010.5 hPa | 0 mm | - | 71 W/m² | - |
| 1777120187 | 15.56° C | 99% | 1010.5 hPa | 0 mm | - | 74 W/m² | - |
| 1777119883 | 15.56° C | 99% | 1010.3 hPa | 0 mm | - | 79 W/m² | - |
| 1777119580 | 15.56° C | 99% | 1010.3 hPa | 0 mm | - | 82 W/m² | - |
| 1777119275 | 15.56° C | 99% | 1010.3 hPa | 0 mm | - | 97 W/m² | - |
| 1777118975 | 15.56° C | 99% | 1010.4 hPa | 0 mm | - | 83 W/m² | - |
| 1777118671 | 15.56° C | 99% | 1010.3 hPa | 0 mm | - | 73 W/m² | - |
| 1777118367 | 15.56° C | 99% | 1010.1 hPa | 0 mm | - | 46 W/m² | - |
| 1777118064 | 15.56° C | 99% | 1010.4 hPa | 0 mm | - | 43 W/m² | - |
| 1777117760 | 15.56° C | 99% | 1010.2 hPa | 0 mm | - | 44 W/m² | - |
| 1777117458 | 15.56° C | 99% | 1010 hPa | 0 mm | - | 39 W/m² | - |
| 1777117155 | 15.56° C | 99% | 1010 hPa | 0 mm | - | 29 W/m² | - |
* Rain latest hour (hover to see other rain measurements)
** Current wind speed in m/s (hover to see current wind gust speed)